Вернуться в каталог

ORBCOMM FM 34

АктивенСвязьLEO
NORAD 25986·PAYLOAD·🇺🇸 United States

Запущен Dec 4, 1999 с Cape Canaveral Space Force Station

Loading…

Ближайшие Пролёты (ближайшие 24 часа)

TLE

СвежийSource: Space-Track

Эпоха: Sep 14, 2026, 14:45 UTC

1 25986U 99065G   26257.61515149  .00000436  00000-0  18924-3 0  9993
2 25986  45.0381 104.5342 0004427  94.1332 266.0023 14.38057811400293

Отслеживайте ORBCOMM FM 34 в реальном времени с AllMySat

Download on the App Store